Starlink 4405

operational
NORAD ID: 53201 Int'l Des: 2022-084 Owner: SPXS Country: US Constellation: starlink
LEOCIRCULARRETROGRADESSO

关于 Starlink 4405

正在加载描述...

实时位置

正在加载3D地球...

即将过境

高度历史

Altitude vs Time

uPlot chart will show altitude changes over time

两行轨道根数

1 53201U 22084N 25299.44989501 .00005034 00000-0 35281-3 0 9998
2 53201 97.6014 358.9543 0000613 90.9815 269.1482 15.05652214179188
Epoch: Oct 26, 2025 • Age: 7 hours

当前状态

高度 557.9 km
速度 7.59 km/s
星下点 53.11°N, 52.48°E
发射日期 Jul 22, 2022
运行时间 3.2 years
类型 internet

技术详情

分类 Payload
质量 297.00 kg
干质量 275.00 kg
总质量 297.00 kg
长度 0.20 m
直径 2.80 m
跨度 9.00 m
形状 Box + pan
制造商 SPXS
平台类型 Starlink
阶段状态 In Orbit
所有者/国家 SPXS/US

大型星座

Loading constellations...